Theta_e
325 325 326 327 332 334 332 331 330 329 329 326 327 322 321 321 320 319 320 320 319 320 318 317 317 315 315 314 313 311 309 307
327 328 330 332 332 331 332 330 329 330 328 325 324 321 321 321 321 319 319 318 317 317 317 316 315 313 312 312 310 307 305 306
325 327 329 331 330 330 331 329 330 331 328 328 326 323 322 320 319 318 317 316 315 314 314 313 312 309 308 307 307 304 304 304
324 327 326 327 326 328 329 329 330 329 326 324 324 323 319 317 317 317 315 315 313 312 311 310 309 308 306 306 306 304 300 302
325 326 324 325 327 329 329 328 327 324 324 322 320 317 315 317 317 316 315 313 311 310 309 309 309 308 307 306 305 303 302 298
324 325 327 328 327 327 328 325 322 322 321 321 320 317 316 315 314 310 310 311 310 309 309 309 308 307 307 305 304 303 302 299
321 323 324 325 327 324 323 320 319 320 319 318 316 313 309 308 307 306 307 307 307 306 305 305 305 305 305 304 304 303 301 299
317 317 318 320 320 319 319 317 316 317 315 312 310 308 308 306 306 306 303 302 302 303 303 302 302 303 304 305 303 302 300 299
314 315 316 317 317 317 316 316 315 313 311 309 309 307 306 306 305 304 303 301 301 302 302 301 301 302 303 304 302 300 301 300
314 315 315 316 316 316 316 315 313 310 310 309 307 305 304 302 303 304 302 301 300 301 301 300 300 301 301 302 301 300 300 300
314 314 316 316 316 317 317 315 310 309 307 307 304 304 303 303 303 302 301 301 301 300 300 299 300 300 300 300 299 299 298 299
314 315 316 316 316 316 314 312 309 307 305 303 302 302 303 303 302 301 301 301 300 299 299 298 298 298 298 299 298 298 297 297
315 315 315 315 314 313 312 310 307 305 303 302 302 303 302 302 301 301 301 300 301 299 298 298 297 297 297 296 296 296 294 293
315 315 314 314 313 312 310 308 305 303 300 301 302 302 301 301 301 300 301 300 300 299 298 297 296 296 295 295 294 293 293 293
315 314 314 313 312 311 308 305 305 302 301 300 301 301 301 301 300 300 300 300 298 297 297 297 297 296 294 294 293 293 293 292
313 313 313 312 311 310 306 305 303 301 300 300 300 301 301 300 299 299 300 299 297 297 297 296 296 294 293 292 292 291 290 290
312 313 313 311 310 308 304 303 302 301 300 300 300 299 299 298 297 298 298 297 296 297 296 295 294 293 285 285 285 288 289 288
311 312 312 312 310 307 303 303 303 301 300 299 298 298 296 296 296 296 295 296 296 295 295 295 294 292 285 283 283 286 287 287
310 311 312 312 310 306 304 303 300 299 298 297 297 296 295 295 295 294 295 296 295 295 294 294 293 290 284 282 282 286 288 287
Wind_Speed
9 9 10 11 14 13 13 12 14 12 6 6 4 3 3 4 4 4 6 5 3 1 4 3 5 5 6 7 9 9 10 11
9 8 8 9 12 9 11 13 14 10 6 8 7 7 6 5 5 5 4 5 4 2 3 4 5 7 7 7 8 11 10 11
11 11 10 10 14 13 13 13 14 9 7 9 8 8 8 6 5 5 5 4 5 3 5 6 7 7 9 10 9 9 9 9
12 12 9 9 11 13 12 12 12 11 11 8 7 6 6 6 7 6 5 3 3 3 4 6 8 8 8 9 9 9 10 9
13 14 14 11 11 11 10 9 12 10 10 9 10 8 6 6 3 4 2 1 4 6 7 7 9 8 10 9 8 7 10 10
15 15 17 16 11 9 12 12 11 10 6 6 5 4 4 4 2 2 3 4 4 5 7 7 8 8 10 9 8 9 9 8
16 14 13 14 14 11 11 11 11 10 9 8 8 6 5 3 4 5 3 4 5 7 10 10 10 11 10 9 8 11 7 9
15 16 15 14 14 13 12 13 12 11 10 10 9 8 6 4 5 2 4 5 5 6 8 10 10 11 12 8 7 8 10 11
15 15 14 15 14 14 13 13 12 11 10 9 7 5 3 3 1 3 4 4 4 7 8 10 11 11 11 4 7 10 9 9
16 16 14 14 14 14 14 13 13 11 9 7 6 2 1 1 3 4 3 4 4 6 9 11 12 13 13 10 9 12 12 10
16 15 14 13 14 14 13 13 12 10 9 8 6 4 4 3 4 4 4 4 6 8 10 11 11 12 13 11 10 11 13 9
16 15 14 14 14 14 13 12 13 10 9 8 5 8 6 5 5 5 5 5 7 9 10 11 11 11 11 11 13 14 15 14
17 15 15 15 15 15 14 12 12 10 9 5 10 8 7 6 6 6 6 7 8 9 10 10 11 11 7 8 12 10 8 11
16 16 16 15 16 16 14 12 12 10 8 11 11 9 7 6 7 7 8 8 9 9 11 11 10 10 11 7 8 9 9 9
16 16 16 16 16 15 14 14 11 10 11 11 10 7 6 6 8 8 9 8 9 11 11 10 9 9 8 7 6 6 8 8
16 16 16 17 16 15 15 13 11 10 9 11 9 6 6 7 8 8 9 8 10 11 11 10 6 7 4 7 7 7 8 11
16 17 17 17 17 15 14 13 12 10 10 11 7 5 7 8 8 8 9 9 10 10 10 10 6 5 10 5 6 8 11 11
15 16 16 16 15 14 15 12 9 11 10 8 6 6 7 7 8 9 10 10 9 10 11 6 7 2 10 4 4 8 10 8
13 13 13 14 13 14 12 12 10 9 9 6 5 6 7 7 8 10 11 10 10 9 9 5 6 4 10 5 5 10 8 8
Wind_Direction
156 185 173 166 149 153 157 133 143 151 154 131 168 171 138 150 148 165 171 109 108 204 96 17 326 326 330 347 325 325 318 316
171 186 168 163 129 148 144 150 164 169 178 186 177 171 157 167 149 116 136 109 121 52 5 359 343 330 339 324 318 319 317 317
182 170 171 176 136 167 176 173 175 195 172 188 167 156 172 140 131 129 112 98 63 35 3 337 354 330 322 322 324 314 313 317
185 170 150 169 162 170 181 181 189 197 147 135 144 120 132 171 162 162 89 62 19 350 340 332 326 316 321 323 312 313 311 312
178 168 156 162 171 185 183 189 164 137 172 157 170 187 178 66 65 84 140 143 329 329 328 321 324 317 308 300 311 321 292 304
163 155 154 162 159 190 157 149 145 151 147 138 163 90 98 109 101 356 268 249 265 300 306 306 309 303 305 303 296 293 299 309
151 143 141 142 155 147 146 153 149 143 137 118 101 110 88 65 36 292 305 329 321 331 340 328 314 300 286 289 285 302 321 296
150 155 158 153 153 156 164 156 146 138 134 127 126 125 123 153 231 310 328 318 331 337 338 319 314 310 301 287 306 283 281 280
167 169 162 161 162 165 168 161 155 149 142 135 129 144 158 207 126 311 306 323 329 338 312 311 307 301 296 289 280 280 291 280
179 177 172 170 172 173 175 169 163 156 144 151 145 136 121 85 267 281 312 314 311 322 317 313 312 309 302 270 271 284 281 288
187 184 179 177 182 173 179 178 156 156 152 148 149 189 206 239 261 282 299 294 307 312 314 316 316 310 300 300 301 287 286 299
193 191 184 186 183 179 182 176 163 162 155 163 174 215 216 237 263 277 286 295 295 311 316 312 305 300 307 333 331 321 307 285
194 194 189 192 186 185 177 178 175 162 165 175 212 214 232 252 276 285 279 280 291 305 308 300 300 308 320 295 301 296 300 316
199 194 195 198 194 190 179 181 168 173 178 215 223 216 237 272 290 285 273 275 288 302 299 296 307 323 309 341 305 304 308 303
208 203 200 203 199 192 191 183 177 178 209 226 234 246 269 290 291 284 279 281 295 294 292 299 310 307 323 306 313 306 306 309
218 214 206 206 201 192 198 186 182 193 215 224 237 264 277 281 281 279 276 285 288 288 290 296 303 302 324 352 326 322 306 296
225 219 215 211 203 200 193 198 186 207 209 225 243 270 277 280 286 284 276 281 290 293 300 297 305 297 104 73 326 318 306 308
228 224 219 216 204 195 199 191 200 203 210 223 237 251 275 282 283 286 288 290 295 289 292 299 276 163 127 125 291 302 303 311
235 226 216 212 200 191 182 208 196 193 220 233 254 271 276 289 293 286 288 287 285 292 292 287 276 117 144 148 276 289 306 304